Weather in Ishtymbal

Russia / Mari El Republic     56°47′30″N   48°49′16″E
temp.,
°C
wind,
m/s
gust,
m/s
humid.,
%
clouds,
%
prec.,
mm/h
press.,
hPa
HPBL,
m
10 august, wed
wed1000:00+16nw2391100 0.9 101962
03:00+16nnw118499 0.9 101811
06:00+17w2385100 0.0 1018116
09:00+21nw3472100 0.0 1019535
12:00+24wnw345813 0.0 10181345
15:00+23nw5563100 0.4 10181091
18:00+20nnw4672100 0.0 1019575
21:00+15n41074100 0.0 1021372
11 august, thu
thu1100:00+12n3685100 0.0 1022136
03:00+10n23917 0.0 102344
06:00+12nnw367882 0.0 1024202
09:00+17nnw46621 0.0 1024813
12:00+20nnw45510 0.0 10241375
15:00+21nnw45481 0.0 10241646
18:00+19nnw22610 0.0 102330
21:00+15sw11670 0.0 102411
12 august, fri
fri1200:00+13wsw227733 0.0 102515
03:00+12wsw3383100 0.0 102435
06:00+14wsw25795 0.0 1024138
09:00+19w4560100 0.0 1024503
12:00+22w5649100 0.0 10231528
15:00+23wnw5744100 0.0 10221509
18:00+21w36620 0.0 1021153
21:00+16wsw37705 0.0 1021104
13 august, sat
sat1300:00+14wsw37770 0.0 1021104
03:00+13w37811 0.0 1021104
06:00+15wnw367854 0.0 1022148
09:00+21nw346353 0.0 1022548
12:00+24nw56503 0.0 10221513
15:00+24nnw57455 0.0 10221760
18:00+21n366115 0.0 1022146
21:00+16nne22718 0.0 102317
14 august, sun
sun1400:00+14e227840 0.0 102417
03:00+12e22808 0.0 102410
06:00+15ese22725 0.0 102571
09:00+21se115049 0.0 1025626
12:00+24nnw11415 0.0 10241582
15:00+24nnw224210 0.0 10231535
18:00+21nnw1157100 0.0 102311
21:00+17se116482 0.0 102311